Vorticity
10 5 5 6 10 10 11 12 9 10 28 5 5 8 15 13 9 6 5 3 4 4 3 5 3 5 6 4 2 -3 9 18 15 12 13 10 9 8 8 -7 1 4 8 9 21 6 22 12 -1 4 -14 -5 1 6
7 6 8 3 5 8 9 12 10 10 10 26 5 6 7 13 15 12 8 6 4 7 -8 -6 -3 -2 -0 2 6 9 -1 0 -8 -3 -19 11 -14 -2 -2 9 2 21 8 -14 -13 -21 -28 -20 1 20 27 19 13 12
3 6 8 8 2 3 6 10 11 9 10 8 29 6 7 7 10 13 14 12 10 9 12 24 23 18 17 15 9 6 8 9 8 8 6 15 11 7 2 -1 10 16 19 -11 3 27 5 -4 -21 -10 -0 -8 5 8
5 9 8 6 2 2 1 8 9 9 9 9 6 33 8 6 5 8 9 10 11 12 12 24 25 20 15 12 13 14 2 11 7 9 7 3 4 11 1 -9 -10 3 5 10 11 20 21 17 20 23 30 22 10 11
10 11 10 10 5 1 3 0 6 10 9 7 7 5 29 14 6 6 5 8 6 7 -12 -2 11 12 8 5 5 8 10 14 7 8 8 8 5 4 17 22 30 43 15 16 14 1 7 10 8 4 12 19 6 5
9 8 6 10 10 6 4 3 3 5 8 9 8 6 7 19 21 7 8 6 8 9 9 10 -3 -7 4 9 4 2 7 11 15 12 9 9 13 5 17 -12 14 23 13 20 21 21 23 20 14 13 9 9 14 11
9 13 10 6 11 13 12 9 6 4 8 8 8 8 6 9 13 23 8 -0 0 -2 6 31 30 29 13 11 13 16 12 9 13 10 7 14 13 15 5 15 14 32 21 9 9 9 14 19 15 15 14 18 8 5
10 9 14 14 17 13 12 9 12 10 9 9 9 7 7 7 8 12 21 13 8 8 12 22 -8 -1 -2 4 10 12 9 8 8 9 3 5 8 11 0 38 12 8 10 12 12 9 13 15 13 9 20 22 7 11
13 11 11 20 19 11 4 10 10 7 8 11 8 10 8 7 9 10 11 15 15 4 -4 -12 -8 8 30 16 20 14 17 13 10 5 17 30 10 -22 6 -1 1 4 12 7 5 8 12 15 15 14 25 22 12 8
10 11 12 12 16 28 -7 10 4 5 10 8 2 11 10 9 16 16 19 20 21 16 -1 10 16 0 7 -8 2 14 17 22 1 18 31 29 -4 19 19 22 32 24 10 9 14 19 9 20 17 16 17 9 6 8
11 9 12 13 18 19 13 -13 9 7 4 5 6 11 10 10 9 10 36 12 14 11 23 21 45 43 28 16 6 2 7 5 21 16 19 8 -1 18 15 20 10 15 14 14 14 16 14 18 18 15 11 -0 5 11
10 13 10 13 17 22 21 -7 -3 3 15 7 7 8 11 8 29 29 24 19 7 18 11 10 11 16 21 30 17 21 22 19 7 11 16 2 17 13 27 19 15 15 8 9 14 15 18 24 25 19 11 1 10 8
10 12 13 15 22 17 19 20 -17 27 8 12 15 24 37 17 3 1 19 -4 -9 4 4 13 13 16 25 22 9 16 9 11 10 18 3 18 25 29 17 11 7 5 9 13 14 13 14 14 14 13 11 9 7 7
11 10 9 13 21 22 17 23 -17 20 16 18 16 12 0 0 23 22 8 4 3 -2 17 9 16 16 16 23 5 6 11 7 8 6 -5 29 18 15 11 5 5 4 1 4 6 7 5 8 9 9 9 7 8 9
12 11 9 8 12 27 34 26 -7 8 24 12 -1 4 22 16 -9 -33 -10 16 24 -3 9 16 23 15 22 -11 23 8 11 17 11 13 12 3 7 9 7 7 7 7 5 7 7 12 9 7 16 13 12 11 11 10
12 12 13 13 7 9 8 22 -1 5 5 34 6 -23 -7 -12 -7 19 25 12 6 9 11 18 14 13 15 -1 14 5 6 7 20 8 10 5 7 8 8 8 6 5 6 6 10 14 16 13 12 11 10 11 11 10
12 10 20 14 9 10 16 16 22 9 35 2 9 8 2 -0 -8 9 5 19 7 6 9 18 -2 -10 14 21 1 8 -12 -12 4 -2 -1 2 10 9 8 9 8 3 6 1 6 5 8 13 10 7 3 2 8 13
11 14 19 7 5 9 7 16 45 32 20 -32 -6 8 6 16 12 12 -4 -3 24 20 12 5 1 -6 -33 -4 -13 -12 41 31 37 20 -4 -1 -16 -13 9 10 4 -3 -3 2 3 4 5 11 17 17 14 13 14 18
15 15 19 6 6 3 9 -11 78 -25 7 14 11 -2 17 20 5 10 14 9 -14 13 21 16 -1 11 10 -4 -6 -14 -7 -20 -10 -9 -36 10 19 7 18 7 5 -10 -9 7 11 6 7 9 11 12 15 11 11 16
14 15 17 11 1 9 1 24 -2 55 9 10 -3 -3 18 21 27 14 3 -6 2 23 4 -20 -24 -8 -6 -10 -11 -21 -8 10 20 15 6 -4 -3 19 1 -1 -2 5 13 7 6 10 7 11 13 14 13 12 12 16
17 15 19 13 17 -5 15 11 2 -19 42 41 16 19 8 7 11 12 20 24 23 -1 -1 12 10 8 10 8 12 20 7 9 15 12 12 8 11 10 13 14 6 12 12 12 13 13 16 17 14 13 13 14 17 15
12 16 16 12 10 14 -4 -1 -17 1 35 -13 2 26 11 16 23 29 22 32 11 4 10 4 2 8 18 29 31 27 19 22 21 10 7 12 12 9 19 11 7 11 13 18 21 19 16 16 18 18 18 18 19 18
5 14 12 6 8 12 13 9 12 11 2 4 11 9 13 16 14 20 21 4 4 21 23 20 19 22 19 15 9 11 14 15 14 15 9 14 22 12 10 15 7 2 11 16 13 11 15 12 12 14 15 16 21 16
-2 16 10 -2 51 38 14 11 20 19 15 19 17 -0 1 5 14 23 -17 -16 23 18 17 20 26 26 24 24 23 23 23 21 16 12 10 5 4 2 5 4 18 10 17 14 9 10 14 15 15 19 20 21 20 16
-1 33 27 -15 -4 -1 15 9 8 14 3 -4 10 -0 -6 5 15 18 -3 0 21 17 10 19 27 25 20 32 34 21 21 15 15 15 14 16 18 18 15 21 16 23 13 7 12 16 18 17 18 20 19 21 17 15
29 18 -11 62 4 -5 4 16 11 5 9 9 6 14 24 28 28 -1 11 22 3 31 23 33 25 9 16 14 7 5 8 11 10 16 20 26 30 27 26 23 18 13 10 14 17 15 22 20 14 16 20 21 19 19
31 -4 16 8 -15 37 25 -5 8 11 14 13 16 22 17 22 22 -12 13 47 10 -2 19 37 40 35 48 49 34 26 23 26 33 25 12 24 32 26 14 10 12 10 15 12 13 14 13 3 7 8 20 25 22 20
-7 5 6 -6 15 14 -10 -0 1 5 16 12 14 9 -6 -10 -26 -2 22 17 35 21 -2 -5 -2 -34 -7 17 1 -6 17 5 29 34 24 13 10 10 10 11 11 12 17 16 12 12 6 16 6 17 20 19 17 17
-30 -20 31 12 6 6 5 -11 7 19 4 13 12 3 -9 13 13 13 11 17 18 21 24 13 1 -2 4 3 0 12 9 21 32 1 -4 7 9 11 11 11 16 18 14 13 14 11 10 8 9 4 19 21 17 13
18 4 25 -0 2 -1 10 18 27 15 13 12 10 3 -1 4 -4 4 10 15 23 17 12 10 15 11 9 6 6 11 13 28 26 1 -4 5 10 6 17 17 14 14 12 16 10 10 15 18 12 11 20 16 22 25
5 23 10 4 9 5 11 17 10 8 9 8 12 1 13 14 12 9 3 1 6 28 27 21 12 9 8 8 7 12 10 18 12 3 1 2 1 9 9 27 12 9 16 13 15 13 14 2 13 17 29 17 14 15
-4 15 22 13 2 7 8 8 10 13 8 8 15 18 4 6 15 26 10 11 5 18 31 26 17 14 14 14 14 12 18 16 15 8 6 4 8 11 10 29 15 5 10 14 9 13 -2 7 27 37 21 13 6 7
22 20 6 2 11 13 15 10 9 11 11 12 12 26 29 18 12 20 26 14 11 22 37 32 25 20 11 6 6 9 11 11 15 15 8 6 11 10 20 24 13 8 9 11 8 15 2 29 30 24 19 16 4 0
Height
3107 3104 3100 3098 3097 3095 3093 3090 3091 3086 3087 3088 3089 3088 3086 3083 3081 3081 3083 3084 3084 3083 3083 3082 3082 3082 3081 3080 3079 3079 3078 3074 3073 3071 3069 3068 3065 3063 3060 3059 3058 3058 3056 3053 3052 3050 3044 3041 3041 3043 3042 3039 3038 3037
3102 3102 3097 3094 3094 3093 3091 3088 3086 3087 3084 3083 3084 3085 3085 3083 3080 3078 3078 3078 3079 3079 3080 3078 3078 3077 3076 3076 3076 3074 3075 3073 3073 3071 3070 3067 3065 3062 3058 3055 3052 3051 3050 3049 3047 3041 3038 3037 3037 3036 3035 3034 3034 3033
3095 3095 3095 3092 3089 3090 3088 3086 3083 3082 3082 3080 3080 3080 3080 3081 3079 3076 3074 3074 3075 3074 3074 3073 3072 3072 3070 3069 3069 3070 3070 3069 3067 3067 3065 3063 3060 3056 3054 3049 3047 3046 3045 3040 3038 3034 3033 3031 3030 3029 3029 3029 3028 3028
3087 3088 3088 3087 3086 3084 3084 3084 3080 3078 3077 3077 3076 3077 3076 3074 3076 3075 3072 3070 3070 3070 3067 3069 3067 3065 3066 3065 3063 3063 3063 3062 3062 3061 3059 3057 3056 3052 3046 3044 3038 3039 3036 3030 3025 3026 3025 3024 3022 3021 3020 3020 3021 3021
3078 3078 3081 3081 3079 3080 3078 3077 3079 3075 3072 3072 3071 3071 3073 3072 3071 3071 3072 3069 3066 3067 3062 3062 3062 3062 3060 3059 3058 3057 3057 3056 3055 3054 3052 3051 3048 3047 3041 3034 3024 3028 3026 3024 3019 3020 3019 3019 3018 3017 3016 3015 3015 3016
3067 3069 3070 3072 3073 3072 3073 3072 3070 3071 3070 3068 3066 3067 3066 3067 3067 3067 3066 3065 3063 3061 3058 3056 3055 3054 3053 3052 3051 3050 3050 3049 3048 3047 3045 3041 3042 3043 3034 3022 3018 3020 3019 3017 3014 3012 3010 3010 3010 3010 3010 3010 3010 3010
3055 3058 3060 3061 3063 3063 3064 3064 3065 3064 3063 3063 3062 3061 3061 3060 3061 3061 3061 3060 3059 3058 3056 3053 3048 3046 3045 3045 3044 3043 3043 3042 3042 3040 3036 3036 3034 3035 3025 3015 3016 3012 3010 3009 3008 3007 3006 3005 3004 3003 3002 3003 3004 3006
3046 3047 3049 3051 3053 3055 3055 3056 3056 3056 3056 3056 3055 3055 3054 3054 3054 3054 3054 3053 3052 3052 3051 3050 3045 3043 3042 3041 3040 3038 3037 3036 3033 3032 3028 3026 3027 3023 3012 3011 3009 3008 3006 3006 3004 3002 3001 3000 2999 2997 2997 2997 2999 3000
3035 3037 3039 3041 3044 3046 3047 3047 3049 3049 3049 3048 3048 3047 3047 3047 3047 3046 3045 3045 3044 3048 3042 3038 3039 3039 3034 3034 3034 3033 3032 3031 3027 3025 3022 3021 3015 3007 3006 3006 3005 3003 3002 3000 2999 2997 2995 2994 2992 2992 2991 2992 2994 2994
3024 3026 3029 3031 3034 3038 3039 3039 3040 3041 3042 3042 3042 3041 3039 3040 3039 3039 3035 3036 3034 3033 3028 3026 3028 3030 3032 3029 3028 3031 3028 3027 3020 3020 3016 3008 3000 3001 3003 3001 2999 2998 2997 2996 2994 2992 2989 2988 2987 2987 2987 2987 2989 2989
3014 3016 3017 3021 3024 3027 3030 3031 3032 3030 3031 3036 3034 3034 3033 3033 3032 3031 3028 3025 3025 3022 3018 3017 3016 3019 3021 3022 3023 3025 3022 3021 3016 3014 3011 3000 2990 2998 2997 2995 2995 2994 2993 2992 2990 2987 2984 2983 2982 2983 2984 2985 2985 2984
3002 3005 3008 3010 3012 3016 3019 3022 3023 3021 3021 3026 3026 3025 3026 3026 3025 3023 3016 3013 3013 3013 3009 3011 3010 3010 3013 3015 3016 3016 3016 3016 3009 3006 3004 2992 2993 2991 2991 2991 2991 2991 2990 2988 2987 2984 2982 2980 2980 2981 2983 2984 2983 2981
2992 2995 2998 3000 3003 3005 3007 3009 3015 3015 3014 3013 3016 3017 3017 3018 3011 3004 2999 3000 3004 3002 3002 3006 3008 3006 3008 3011 3012 3009 3003 3003 3001 2997 2990 2985 2986 2986 2987 2987 2988 2988 2988 2986 2984 2983 2981 2980 2980 2980 2980 2980 2979 2978
2982 2984 2987 2988 2992 2992 2997 2999 3005 3005 3003 3003 3004 3003 3006 3001 2991 2988 2994 2996 2996 2998 3000 2999 3003 3003 3002 3006 3006 3002 2999 2994 2989 2983 2975 2978 2980 2981 2982 2983 2983 2983 2983 2982 2981 2980 2979 2978 2977 2975 2975 2975 2973 2972
2971 2974 2976 2979 2983 2985 2987 2989 2993 2994 2991 2991 2988 2987 2983 2985 2985 2987 2990 2991 2991 2994 2996 2997 2998 2999 2999 3000 2999 2995 2991 2982 2973 2969 2970 2971 2973 2976 2978 2979 2979 2978 2977 2976 2975 2973 2972 2971 2970 2969 2968 2967 2966 2965
2961 2964 2967 2971 2976 2977 2979 2981 2982 2978 2978 2975 2972 2974 2973 2977 2979 2981 2988 2987 2986 2989 2991 2993 2993 2992 2991 2990 2986 2983 2979 2971 2964 2964 2967 2968 2968 2969 2970 2972 2973 2973 2972 2971 2969 2967 2965 2963 2962 2961 2960 2959 2958 2957
2951 2951 2960 2963 2966 2969 2972 2970 2967 2969 2966 2955 2959 2962 2963 2965 2969 2976 2981 2980 2979 2980 2982 2985 2984 2984 2980 2977 2972 2968 2966 2968 2966 2965 2964 2965 2965 2964 2964 2965 2966 2965 2965 2964 2963 2961 2960 2958 2956 2955 2952 2950 2949 2947
2938 2945 2949 2954 2955 2956 2958 2959 2956 2947 2946 2949 2951 2953 2955 2955 2960 2966 2969 2971 2971 2970 2971 2973 2975 2973 2969 2963 2961 2966 2964 2966 2965 2964 2963 2963 2962 2961 2959 2958 2958 2957 2955 2954 2952 2951 2951 2950 2948 2945 2943 2941 2939 2938
2930 2934 2939 2944 2946 2946 2947 2946 2941 2934 2935 2941 2942 2945 2945 2946 2951 2953 2956 2960 2962 2961 2959 2959 2960 2954 2950 2953 2959 2961 2963 2961 2960 2958 2957 2957 2956 2955 2953 2951 2949 2947 2946 2945 2943 2941 2940 2939 2937 2935 2933 2931 2930 2928
2921 2925 2928 2933 2935 2936 2935 2934 2932 2929 2929 2932 2932 2932 2933 2935 2938 2941 2944 2946 2951 2949 2946 2942 2937 2938 2943 2951 2952 2952 2952 2951 2951 2949 2949 2950 2947 2945 2944 2942 2940 2937 2935 2934 2932 2930 2929 2928 2927 2924 2921 2920 2918 2918
2911 2914 2919 2923 2924 2926 2923 2922 2922 2923 2921 2919 2921 2921 2922 2923 2923 2927 2929 2932 2931 2930 2931 2928 2929 2933 2937 2939 2941 2939 2938 2937 2936 2935 2934 2934 2936 2932 2931 2931 2928 2925 2923 2922 2921 2920 2918 2917 2914 2911 2909 2909 2909 2907
2901 2907 2909 2912 2911 2911 2910 2909 2914 2913 2917 2913 2913 2913 2912 2913 2913 2915 2917 2914 2912 2916 2916 2919 2919 2919 2923 2924 2926 2925 2924 2924 2923 2921 2921 2921 2920 2921 2920 2920 2917 2915 2913 2912 2910 2908 2906 2904 2902 2900 2898 2897 2897 2896
2894 2897 2898 2900 2901 2899 2898 2901 2903 2903 2904 2903 2904 2905 2904 2902 2903 2904 2901 2901 2901 2904 2907 2905 2906 2907 2907 2909 2909 2908 2910 2911 2910 2909 2909 2909 2908 2908 2907 2907 2906 2903 2901 2901 2897 2896 2896 2895 2891 2888 2887 2886 2886 2886
2884 2886 2886 2887 2886 2884 2884 2888 2889 2890 2890 2891 2894 2893 2893 2893 2892 2890 2887 2887 2890 2894 2893 2893 2893 2892 2892 2891 2889 2893 2896 2896 2895 2894 2894 2893 2892 2895 2894 2894 2894 2893 2889 2887 2887 2886 2885 2885 2882 2880 2878 2877 2876 2877
2875 2874 2874 2873 2872 2872 2874 2877 2878 2879 2879 2882 2884 2882 2883 2884 2882 2880 2876 2876 2880 2879 2880 2880 2879 2878 2876 2875 2876 2878 2881 2880 2879 2877 2879 2877 2878 2880 2882 2884 2883 2882 2878 2877 2877 2875 2875 2875 2874 2871 2869 2869 2869 2869
2858 2859 2860 2858 2861 2864 2864 2866 2868 2868 2869 2872 2872 2872 2873 2874 2874 2869 2866 2867 2868 2868 2867 2865 2864 2863 2861 2864 2865 2866 2868 2867 2865 2863 2869 2866 2866 2867 2870 2870 2871 2872 2868 2869 2868 2867 2866 2866 2865 2863 2862 2861 2861 2862
2843 2842 2847 2849 2853 2854 2853 2855 2858 2860 2859 2860 2860 2863 2864 2863 2859 2858 2861 2862 2859 2860 2857 2854 2851 2851 2851 2853 2855 2855 2855 2855 2854 2857 2858 2857 2857 2859 2860 2860 2861 2861 2860 2860 2860 2859 2859 2859 2858 2857 2856 2854 2854 2855
2833 2835 2838 2843 2844 2846 2847 2848 2849 2850 2850 2850 2851 2852 2852 2851 2849 2854 2853 2854 2854 2853 2854 2853 2850 2846 2847 2847 2847 2847 2848 2848 2848 2848 2849 2851 2852 2852 2851 2851 2852 2852 2852 2852 2851 2851 2851 2852 2852 2850 2849 2848 2849 2850
2825 2827 2831 2832 2834 2835 2835 2835 2835 2837 2839 2840 2841 2842 2841 2841 2843 2843 2843 2843 2842 2842 2842 2841 2843 2840 2840 2841 2841 2840 2841 2841 2842 2843 2844 2845 2844 2844 2841 2842 2843 2844 2843 2843 2844 2844 2844 2845 2845 2844 2843 2843 2844 2845
2813 2818 2820 2822 2822 2821 2823 2825 2827 2832 2833 2833 2833 2832 2831 2829 2830 2832 2830 2830 2829 2827 2828 2829 2827 2826 2828 2829 2830 2830 2832 2833 2833 2835 2837 2837 2837 2837 2836 2836 2836 2835 2836 2836 2837 2837 2837 2837 2837 2836 2836 2837 2838 2841
2809 2812 2812 2812 2811 2814 2818 2820 2821 2822 2823 2823 2823 2822 2819 2818 2816 2818 2817 2817 2816 2815 2814 2814 2813 2814 2815 2817 2819 2820 2821 2824 2826 2827 2827 2827 2828 2829 2829 2828 2829 2829 2829 2829 2830 2830 2830 2830 2830 2829 2830 2831 2834 2836
2797 2797 2800 2801 2804 2807 2809 2809 2809 2809 2810 2811 2810 2811 2809 2806 2801 2801 2802 2801 2801 2800 2799 2800 2799 2799 2804 2805 2806 2806 2808 2811 2813 2815 2816 2816 2818 2819 2820 2820 2821 2821 2821 2822 2823 2823 2823 2823 2822 2823 2825 2827 2830 2831
2787 2788 2791 2794 2795 2796 2798 2800 2798 2797 2797 2796 2795 2797 2796 2794 2786 2785 2785 2784 2785 2784 2783 2784 2786 2789 2791 2793 2794 2795 2795 2797 2799 2801 2803 2805 2808 2810 2811 2811 2812 2813 2814 2815 2815 2816 2816 2816 2817 2818 2821 2822 2825 2827